Wind_Speed
8 7 6 7 10 11 13 15 16 16 18 22 22 21 21 24 26 25 25 26 28 28 29 31 31 32 33 34 34 32 32 32 31 30 27 24 24 24 25 26 26 26 27 27
5 6 8 11 13 14 14 14 14 15 18 21 21 21 22 23 24 25 25 26 26 28 29 30 31 32 33 34 34 34 34 33 32 30 27 26 25 25 24 25 26 27 28 29
7 7 11 13 14 13 13 13 14 16 18 21 20 20 22 22 23 24 25 25 27 28 28 29 30 30 32 33 34 34 33 33 32 30 29 27 27 27 27 25 25 27 28 30
8 9 13 14 12 13 13 14 16 17 17 17 18 20 20 22 23 24 24 25 25 26 25 27 28 29 30 32 33 33 34 33 32 32 32 30 27 27 28 27 27 27 28 29
9 11 13 13 13 14 14 15 16 16 16 16 17 20 20 23 24 23 23 24 22 23 24 25 27 29 30 31 32 33 34 34 33 32 32 31 30 30 28 28 29 29 29 28
9 11 13 13 14 15 15 14 14 13 15 17 17 19 20 24 23 24 23 21 20 22 24 25 26 28 29 29 31 32 33 33 34 34 33 32 31 31 30 29 30 30 30 29
7 10 13 14 14 14 15 15 14 15 16 17 16 19 22 24 24 24 22 20 20 21 23 24 26 27 28 29 31 32 32 33 33 33 32 32 31 31 31 31 31 30 30 30
9 12 13 14 14 14 15 15 14 16 17 17 18 20 21 21 23 21 21 20 20 20 22 24 25 27 28 29 31 32 32 33 33 33 33 33 33 32 32 32 32 32 31 31
12 14 13 14 14 14 14 13 14 16 16 18 19 20 21 20 18 19 19 20 20 21 22 23 24 26 28 29 30 31 32 33 34 33 32 32 32 32 32 32 32 32 31 31
13 13 11 12 13 13 12 13 14 14 17 18 18 18 18 18 18 18 19 19 19 20 21 23 24 25 26 27 27 29 29 30 30 31 32 31 31 31 31 31 31 30 30 30
13 13 10 10 12 12 11 12 13 14 16 18 19 17 18 18 19 19 19 19 19 20 21 23 23 24 25 26 27 28 28 29 30 30 31 31 30 30 30 30 30 30 30 29
13 13 11 10 12 12 11 11 12 13 15 17 19 20 19 18 18 18 18 19 20 20 21 22 23 24 24 25 26 27 27 28 29 30 30 31 30 30 30 29 29 29 29 29
13 13 11 10 11 11 10 10 11 13 15 16 17 18 18 18 18 18 19 20 20 20 21 22 23 23 24 25 25 26 28 28 29 30 30 30 30 31 30 29 29 29 28 28
13 12 11 11 9 9 10 10 12 14 15 16 16 17 19 19 19 19 20 19 20 21 21 22 22 23 24 24 24 25 26 27 28 29 30 30 30 30 29 28 28 28 29 29
12 12 10 9 8 9 10 11 13 14 15 17 17 18 19 18 19 19 20 21 21 21 21 22 22 22 23 23 24 24 25 25 25 26 27 29 29 28 28 27 27 28 27 26
12 11 10 8 8 9 11 12 14 14 15 16 17 18 18 20 20 21 21 22 21 22 22 22 22 23 23 23 23 23 23 23 24 24 24 24 25 24 25 26 26 25 25 24
11 10 9 8 7 9 12 13 14 15 16 17 18 19 20 21 21 21 22 21 21 21 21 21 21 21 21 21 22 21 21 21 21 21 21 22 22 22 22 22 22 22 23 23
10 10 9 8 8 10 13 12 13 15 16 17 18 18 20 21 20 20 20 20 20 20 20 21 21 20 20 20 20 19 18 18 19 19 19 19 19 19 19 19 20 20 20 20
10 10 9 9 9 10 12 12 13 16 16 17 18 19 20 20 20 20 19 19 19 19 19 18 17 17 16 15 15 16 17 16 15 16 16 16 16 16 16 16 17 18 18 18
10 9 9 10 9 11 11 13 14 16 17 18 18 19 19 19 19 18 18 19 19 18 16 16 15 14 13 13 13 13 13 12 13 14 13 13 13 13 14 14 15 15 15 15
9 9 9 10 10 12 12 13 15 16 17 18 18 18 19 18 18 18 18 18 17 16 15 13 13 12 12 12 12 11 11 11 11 11 11 11 12 13 13 13 14 14 15 16
10 10 10 10 12 13 12 14 15 16 17 17 18 18 18 17 17 17 17 17 15 14 12 11 10 10 10 10 9 8 8 8 8 8 9 10 11 12 12 13 13 14 15 15
10 10 10 11 12 12 12 13 14 15 16 16 17 17 17 17 16 16 15 14 12 11 9 8 8 9 8 8 8 8 7 7 6 7 8 9 11 11 12 12 12 13 14 14
10 10 10 11 11 11 12 12 13 14 15 16 17 17 17 16 15 14 13 12 11 9 8 7 7 7 8 8 8 8 8 7 7 8 8 8 9 10 10 11 12 12 12 13
10 10 10 10 10 10 10 11 12 13 14 15 16 16 16 15 13 12 11 10 9 8 7 7 7 7 7 7 8 8 7 7 7 8 8 9 9 9 9 9 9 9 9 9
11 10 10 9 9 10 10 11 12 13 14 15 15 15 15 13 12 11 10 9 8 7 7 7 7 7 7 6 7 7 7 6 7 7 7 8 8 7 7 7 7 7 7 8
Wind_Direction
246 252 249 250 254 247 246 245 250 259 264 270 275 275 271 266 269 272 269 263 258 257 254 253 252 251 250 250 250 252 254 257 258 258 260 262 263 261 261 258 259 258 258 258
250 265 252 250 258 264 265 262 261 267 269 272 276 276 276 275 272 271 268 266 264 259 255 253 252 250 250 251 251 252 254 256 259 261 263 266 267 265 265 264 260 257 258 257
237 248 260 262 270 276 273 272 268 266 270 278 282 281 281 277 276 270 268 265 262 258 255 252 252 252 250 251 252 252 254 258 261 264 265 266 267 268 269 267 265 263 262 259
242 243 262 269 275 277 278 272 272 273 272 277 282 281 275 276 279 275 269 265 260 257 255 254 253 254 253 253 254 254 254 256 259 262 264 265 268 273 272 270 270 271 269 266
243 252 264 272 275 275 276 274 275 278 276 272 272 276 278 277 278 278 274 270 264 262 258 257 255 254 254 254 255 255 255 256 258 261 262 264 267 270 270 271 272 272 273 272
242 254 265 271 278 284 287 283 280 280 278 272 268 269 269 273 274 280 278 276 272 265 260 258 255 254 255 255 254 255 255 256 258 260 262 264 266 268 270 272 273 273 274 273
269 269 275 280 280 288 289 289 286 283 280 283 268 267 267 272 277 279 278 280 280 271 264 260 257 256 257 255 255 255 255 258 260 261 263 265 268 268 270 272 273 275 275 273
271 276 266 272 283 288 287 285 280 283 286 291 287 276 270 275 277 277 278 282 283 274 266 264 264 261 259 257 255 256 258 259 260 262 264 267 268 269 270 270 272 273 273 272
254 262 267 270 279 286 287 284 277 280 288 291 292 283 285 278 282 274 278 281 281 276 268 267 267 265 263 261 259 258 259 260 261 263 265 266 269 270 271 271 271 273 270 272
255 264 272 281 286 288 289 279 280 285 292 293 291 287 287 286 293 292 288 285 282 277 274 271 270 267 264 263 263 260 259 261 262 263 264 266 270 271 272 273 273 272 270 272
264 266 266 279 286 285 288 289 288 284 285 291 295 292 293 292 293 293 289 285 285 282 277 276 274 271 267 267 267 265 263 263 262 263 265 266 268 270 271 274 276 275 275 274
264 267 262 264 272 277 283 285 287 289 293 298 297 294 293 295 298 297 295 292 291 286 281 279 277 274 271 270 269 267 265 265 264 264 265 266 268 271 273 274 274 275 276 277
268 272 269 259 262 272 276 282 292 296 297 300 298 298 299 299 301 297 295 293 293 288 285 282 280 277 274 272 270 268 267 267 266 266 266 267 268 270 272 273 274 275 274 272
269 272 271 274 271 282 289 290 293 295 299 301 300 300 301 304 304 298 296 295 294 291 289 287 283 278 276 275 274 273 270 269 269 268 267 267 268 268 268 270 272 273 272 271
267 272 274 280 289 294 292 294 293 295 297 298 300 302 305 307 305 303 302 299 296 294 292 290 286 283 281 279 279 277 275 273 271 270 270 269 267 266 266 267 268 270 271 271
269 271 273 280 289 291 291 293 296 299 300 300 302 303 307 305 305 304 303 301 298 295 295 294 290 287 286 284 283 282 278 275 273 272 271 270 267 264 263 262 264 266 266 267
268 270 268 272 284 289 290 294 299 300 304 303 303 307 310 307 306 304 304 302 301 300 297 294 294 290 287 285 285 282 279 277 275 273 272 269 266 264 262 263 262 263 265 267
270 272 271 275 277 285 291 296 302 306 307 307 308 309 309 308 309 307 306 307 305 303 297 295 295 294 290 285 283 282 280 278 277 276 273 271 270 268 267 266 265 267 270 269
267 272 278 284 289 288 292 305 308 311 311 312 313 312 311 310 310 309 308 307 306 306 299 296 298 298 295 290 289 287 281 276 275 275 273 271 269 270 270 272 272 269 269 270
265 271 278 283 288 297 302 309 312 314 313 317 318 317 317 315 313 312 311 310 308 307 304 299 299 299 295 296 295 294 288 282 279 277 274 272 271 272 277 276 276 273 272 275
260 267 277 285 291 295 303 307 312 315 316 319 320 319 319 318 317 315 314 313 310 308 305 300 299 301 299 298 296 295 292 291 287 284 282 276 275 275 276 275 276 275 276 278
257 266 278 283 289 293 301 306 311 314 317 319 320 321 321 320 319 318 316 315 312 312 308 302 303 306 304 304 302 302 301 298 296 291 287 282 281 281 279 278 277 278 277 278
247 259 269 278 285 294 303 307 311 316 320 322 323 324 324 323 322 323 323 322 318 314 312 309 308 310 309 313 316 320 316 309 305 301 297 291 287 287 286 282 279 281 281 282
247 260 269 278 285 295 303 308 314 321 325 328 329 329 330 329 329 329 329 330 329 322 318 315 316 317 315 316 318 317 320 315 310 310 310 306 301 298 291 286 284 285 284 283
248 261 273 282 290 296 304 312 319 325 330 333 334 335 335 336 337 338 338 338 336 333 330 328 327 323 319 317 318 318 320 323 321 319 316 313 309 305 298 293 292 293 292 291
251 261 269 279 287 295 307 315 323 329 333 336 338 340 342 343 345 347 347 349 351 349 343 339 339 337 333 331 332 335 333 330 328 327 326 323 317 313 309 309 308 307 306 307
Height
5804 5806 5807 5809 5809 5810 5811 5812 5813 5813 5811 5808 5806 5805 5803 5802 5801 5800 5800 5799 5799 5802 5803 5804 5805 5806 5807 5809 5809 5811 5813 5814 5815 5815 5815 5816 5817 5818 5820 5821 5821 5822 5823 5825
5803 5804 5805 5806 5806 5806 5806 5807 5807 5808 5805 5803 5801 5800 5798 5796 5796 5795 5794 5794 5794 5795 5796 5797 5798 5799 5801 5802 5802 5804 5806 5807 5808 5809 5810 5811 5812 5813 5814 5814 5815 5817 5818 5819
5801 5803 5803 5802 5802 5802 5802 5803 5803 5802 5801 5798 5797 5796 5793 5791 5789 5789 5788 5788 5788 5788 5790 5791 5792 5792 5794 5796 5797 5798 5799 5801 5801 5802 5804 5805 5806 5807 5808 5809 5810 5811 5812 5813
5799 5800 5800 5800 5799 5799 5799 5799 5797 5796 5796 5795 5794 5791 5790 5786 5785 5783 5782 5782 5781 5782 5783 5785 5786 5787 5788 5790 5791 5792 5793 5795 5796 5797 5798 5799 5801 5801 5802 5804 5805 5806 5806 5807
5797 5798 5797 5797 5797 5796 5795 5794 5793 5791 5790 5790 5789 5787 5786 5782 5780 5778 5777 5776 5777 5778 5778 5780 5781 5782 5782 5783 5785 5786 5787 5789 5790 5791 5793 5794 5796 5797 5797 5798 5799 5800 5800 5801
5793 5794 5794 5794 5793 5792 5791 5789 5788 5787 5786 5785 5785 5783 5781 5776 5774 5774 5773 5772 5773 5773 5773 5774 5775 5776 5776 5777 5779 5780 5781 5782 5784 5786 5787 5788 5790 5790 5791 5792 5793 5793 5794 5794
5790 5791 5790 5790 5789 5789 5788 5787 5785 5784 5782 5781 5779 5778 5776 5772 5771 5769 5767 5768 5768 5768 5769 5769 5770 5771 5771 5772 5773 5774 5775 5776 5777 5779 5780 5781 5782 5783 5784 5785 5786 5786 5787 5787
5788 5788 5787 5786 5786 5786 5784 5783 5783 5781 5779 5777 5775 5773 5771 5768 5766 5765 5764 5764 5765 5764 5764 5765 5765 5765 5766 5767 5767 5767 5768 5770 5771 5772 5773 5774 5775 5776 5777 5778 5778 5779 5779 5780
5785 5785 5783 5783 5783 5783 5782 5780 5780 5778 5776 5775 5772 5769 5765 5764 5761 5760 5760 5761 5761 5761 5760 5760 5760 5760 5760 5760 5760 5761 5762 5763 5764 5766 5767 5768 5768 5769 5769 5770 5770 5771 5772 5772
5781 5781 5781 5780 5780 5780 5779 5777 5777 5775 5773 5770 5769 5765 5762 5761 5759 5757 5756 5756 5757 5757 5756 5755 5755 5755 5755 5754 5754 5753 5755 5756 5758 5759 5760 5761 5762 5762 5762 5763 5763 5764 5764 5764
5778 5779 5779 5779 5778 5777 5776 5775 5773 5772 5770 5768 5765 5764 5760 5759 5757 5755 5753 5753 5753 5752 5751 5751 5750 5750 5749 5749 5748 5749 5749 5750 5751 5752 5753 5754 5755 5755 5756 5756 5756 5756 5757 5757
5775 5776 5775 5775 5775 5774 5773 5772 5771 5770 5768 5766 5763 5763 5757 5755 5753 5752 5750 5749 5748 5747 5746 5746 5745 5744 5743 5743 5743 5743 5743 5744 5744 5745 5746 5746 5747 5748 5749 5749 5749 5749 5750 5750
5772 5773 5772 5772 5773 5771 5770 5769 5768 5767 5765 5763 5761 5760 5754 5752 5751 5749 5747 5746 5745 5743 5742 5741 5740 5739 5738 5738 5737 5737 5737 5737 5737 5738 5738 5739 5740 5741 5741 5742 5742 5742 5743 5743
5770 5770 5770 5769 5767 5767 5767 5767 5766 5764 5763 5760 5758 5755 5751 5749 5747 5746 5744 5743 5741 5739 5738 5736 5735 5734 5733 5732 5732 5731 5731 5730 5730 5731 5731 5732 5733 5734 5734 5734 5735 5735 5736 5736
5767 5767 5767 5766 5766 5766 5765 5764 5763 5762 5760 5758 5755 5752 5749 5747 5744 5742 5740 5739 5737 5735 5733 5731 5730 5729 5727 5727 5726 5725 5724 5724 5724 5724 5724 5725 5725 5726 5727 5727 5728 5728 5729 5729
5764 5765 5765 5765 5764 5764 5763 5762 5760 5759 5756 5754 5752 5749 5746 5743 5741 5738 5736 5734 5732 5730 5728 5726 5725 5723 5722 5721 5720 5719 5718 5718 5718 5718 5717 5718 5719 5719 5720 5720 5721 5721 5722 5723
5762 5762 5762 5762 5762 5761 5761 5759 5757 5755 5753 5751 5748 5746 5742 5739 5737 5735 5732 5729 5727 5725 5723 5722 5720 5718 5717 5716 5714 5713 5713 5712 5712 5711 5712 5712 5712 5713 5714 5714 5715 5715 5716 5717
5760 5760 5760 5759 5760 5759 5759 5756 5755 5753 5750 5747 5745 5742 5739 5736 5733 5731 5728 5726 5723 5721 5719 5717 5715 5713 5712 5710 5709 5708 5708 5707 5707 5706 5706 5706 5707 5708 5708 5708 5709 5709 5710 5711
5758 5758 5758 5757 5756 5755 5754 5753 5752 5750 5747 5744 5742 5739 5736 5732 5730 5727 5724 5722 5719 5717 5715 5713 5711 5709 5707 5706 5705 5704 5703 5702 5702 5702 5702 5702 5702 5703 5703 5704 5704 5705 5705 5706
5756 5756 5756 5755 5754 5753 5753 5751 5749 5748 5744 5741 5738 5735 5732 5729 5726 5724 5721 5718 5715 5713 5711 5709 5707 5705 5704 5703 5701 5700 5699 5699 5698 5698 5698 5698 5698 5699 5700 5700 5700 5700 5701 5701
5754 5754 5754 5753 5751 5750 5750 5748 5747 5746 5743 5738 5735 5732 5729 5726 5723 5721 5717 5715 5712 5709 5707 5705 5704 5702 5701 5700 5699 5698 5696 5696 5695 5695 5695 5695 5695 5696 5696 5696 5696 5697 5697 5697
5751 5752 5752 5751 5750 5750 5747 5746 5745 5743 5739 5735 5732 5729 5726 5723 5720 5717 5714 5711 5709 5706 5704 5703 5701 5700 5699 5698 5697 5695 5695 5694 5693 5693 5693 5692 5692 5693 5693 5693 5693 5693 5693 5693
5749 5750 5750 5750 5750 5747 5746 5744 5742 5739 5736 5733 5730 5727 5723 5720 5717 5714 5711 5709 5706 5704 5703 5701 5700 5699 5697 5696 5695 5694 5693 5692 5692 5691 5691 5690 5690 5690 5689 5689 5689 5690 5689 5689
5746 5747 5747 5746 5746 5745 5744 5742 5740 5737 5734 5731 5728 5724 5721 5718 5715 5712 5709 5707 5704 5702 5701 5700 5698 5697 5696 5695 5694 5693 5692 5691 5690 5690 5689 5688 5687 5687 5686 5686 5686 5686 5686 5686
5744 5745 5745 5744 5744 5743 5742 5740 5738 5735 5732 5729 5726 5722 5719 5716 5713 5710 5708 5705 5703 5702 5700 5699 5697 5696 5695 5694 5693 5692 5691 5690 5689 5688 5687 5686 5686 5685 5685 5684 5684 5684 5683 5683
5742 5743 5744 5743 5743 5742 5741 5739 5736 5734 5731 5728 5725 5721 5718 5715 5712 5709 5707 5705 5703 5702 5700 5698 5697 5695 5694 5693 5692 5691 5690 5689 5688 5687 5686 5685 5684 5684 5683 5683 5682 5682 5682 5681